Regional Weather Roundup
Issued by NWS State College, PA

Home | Current Version | Previous Version | Text Only | Print | Product List | Glossary Off
Versions: 1 2 3 4 5 6 7 8 9 10 11 12 13 14 15 16 17 18 19 20 21 22 23 24 25 26 27 28 29 30 31 32 33 34 35 36 37 38 39 40 41 42 43 44 45 46 47 48 49 50

000
ASUS41 KCTP 261310
RWRCTP

REGIONAL WEATHER ROUNDUP
NATIONAL WEATHER SERVICE STATE COLLEGE PA
900 AM EDT SAT JUL 26 2014

Note: "fair" indicates few or no clouds below 12,000 feet with no
significant weather and/or obstructions to visibility.

* = STATION THAT DOES NOT REPORT PRECIPITATION /E.G. RAIN...SNOW...ETC/
    THUNDER OR FOG.

PAZ002>004-007>009-013>016-020>023-029>032-261400-
WESTERN PENNSYLVANIA

CITY           SKY/WX    TMP DP  RH WIND       PRES   REMARKS
ERIE           SUNNY     70  55  59 S9        29.96F
MEADVILLE      SUNNY     66  55  67 S8        30.00S
FRANKLIN*      SUNNY     64  55  72 S7        30.03S
NEW CASTLE       N/A     66  61  84 CALM      30.01S
BEAVER COUNTY  SUNNY     64  61  88 SE8       30.01
BUTLER*        MOSUNNY   63  57  82 SE6       30.04S
PITTSBURGH INT MOSUNNY   68  60  75 S8        30.01F
PITTSBURGH     MOSUNNY   68  58  70 SE7       30.02S
INDIANA*       MOSUNNY   63  57  82 CALM      30.07F
LATROBE        MOSUNNY   68  61  77 S7        30.04F
WASHINGTON CO* SUNNY     68  59  73 SE5       30.03S
$$

PAZ004>006-010>012-017>019-024>028-033>037-041-042-045-046-049>053-261400-
CENTRAL PENNSYLVANIA

CITY           SKY/WX    TMP DP  RH WIND       PRES   REMARKS
BRADFORD       PTSUNNY   61  53  75 CALM      30.03S
DUBOIS         CLOUDY    61  55  81 S3        30.03S
CLEARFIELD     CLOUDY    60  58  92 CALM      30.05S
JOHNSTOWN      CLOUDY    61  55  81 S7        30.06F
ALTOONA        PTSUNNY   67  57  70 CALM      30.06F
STATE COLLEGE  CLOUDY    63  57  82 CALM      30.05R
WILLIAMSPORT   CLOUDY    63  55  75 NW3       30.01R
SELINSGROVE    CLOUDY    66  60  81 VRB5      30.03R
FT INDIANTOWN  CLOUDY    67  63  86 SW8       30.03R
CAPITAL CITY   CLOUDY    65  61  87 W3        30.02R
HARRISBURG     CLOUDY    68  61  78 CALM      30.00R
YORK           CLOUDY    67  62  84 NW3       30.01R
$$

PAZ038>040-043-044-047-048-054-055-060>062-067>071-261400-
EASTERN PENNSYLVANIA

CITY           SKY/WX    TMP DP  RH WIND       PRES   REMARKS
SCRANTON       CLOUDY    65  54  67 CALM      30.02R
MOUNT POCONO   CLOUDY    66  55  67 W8        30.05R
ALLENTOWN      CLOUDY    68  59  73 CALM      30.02S
QUAKERTOWN*    CLOUDY    66  61  82 CALM      30.04R
READING        LGT RAIN  67  62  84 CALM      29.99F
LANCASTER      CLOUDY    67  62  84 CALM      30.01S
COATESVILLE    LGT RAIN  64  63  94 E5        30.03S
POTTSTOWN      CLOUDY    65  61  87 CALM      30.03F
BLUE BELL      PTSUNNY   68  63  83 CALM      30.02R
DOYLESTOWN     PTSUNNY   70  59  68 SW6       30.02R
WILLOW GROVE   NOT AVBL
NORTH PHILA    CLOUDY    73  61  65 CALM      30.03R
PHILADELPHIA   CLOUDY    73  62  68 S6        30.01S
$$



USA.gov is the U.S. government's official web portal to all federal, state and local government web resources and services.